This is the latest recevied weather packets stored in our database for station/object EA6AMI-5. If no packets are shown the sender has not sent any weather packets the latest 10 day(s).
| Time | Temp. | Humidity | Pressure | Rain* | Wind** | Luminosity | Snow |
|---|---|---|---|---|---|---|---|
| 1787767204 | 30° C | 69% | 1012.3 hPa | 0 mm | - | 21 W/m² | - |
| 1787766843 | 30° C | 67% | 1012.2 hPa | 0 mm | - | 23 W/m² | - |
| 1787766304 | 30° C | 67% | 1012.4 hPa | 0 mm | - | 29 W/m² | - |
| 1787765763 | 30° C | 65% | 1012.4 hPa | 0 mm | - | 31 W/m² | - |
| 1787765224 | 30.56° C | 64% | 1012.3 hPa | 0 mm | - | 58 W/m² | - |
| 1787764683 | 30.56° C | 64% | 1012.4 hPa | 0 mm | - | 50 W/m² | - |
| 1787764143 | 30.56° C | 63% | 1012.2 hPa | 0 mm | - | 79 W/m² | - |
| 1787763603 | 30.56° C | 60% | 1012.5 hPa | 0 mm | - | 77 W/m² | - |
| 1787763243 | 30.56° C | 58% | 1012.6 hPa | 0 mm | - | 78 W/m² | - |
| 1787762704 | 30.56° C | 56% | 1012.6 hPa | 0 mm | - | 98 W/m² | - |
| 1787762163 | 30.56° C | 55% | 1012.4 hPa | 0 mm | - | 110 W/m² | - |
| 1787761624 | 31.11° C | 55% | 1012.3 hPa | 0 mm | - | 140 W/m² | - |
| 1787761083 | 30.56° C | 56% | 1012.2 hPa | 0 mm | - | 179 W/m² | - |
| 1787760544 | 30.56° C | 58% | 1011.1 hPa | 0 mm | - | 215 W/m² | - |
| 1787760004 | 29.44° C | 59% | 1011.6 hPa | 0 mm | - | 239 W/m² | - |
| 1787759643 | 30° C | 59% | 1010.1 hPa | 0 mm | - | 55 W/m² | - |
| 1787759103 | 30.56° C | 58% | 1011.6 hPa | 0 mm | - | 46 W/m² | - |
| 1787758563 | 30.56° C | 57% | 1011.1 hPa | 0 mm | - | 102 W/m² | - |
| 1787758024 | 31.11° C | 54% | 1011.2 hPa | 0 mm | - | 125 W/m² | - |
| 1787757484 | 31.11° C | 53% | 1011.5 hPa | 0 mm | - | 140 W/m² | - |
| 1787756943 | 31.67° C | 50% | 1011.6 hPa | 0 mm | - | 137 W/m² | - |
| 1787756403 | 31.67° C | 47% | 1011.4 hPa | 0 mm | - | 146 W/m² | - |
| 1787756044 | 32.22° C | 45% | 1011.7 hPa | 0 mm | - | 164 W/m² | - |
| 1787755503 | 32.78° C | 44% | 1011.6 hPa | 0 mm | - | 59 W/m² | - |
| 1787754963 | 32.78° C | 42% | 1011.8 hPa | 0 mm | - | 504 W/m² | - |
* Rain latest hour (hover to see other rain measurements)
** Current wind speed in m/s (hover to see current wind gust speed)